Location: Bartshausen
(51.8454°N, 9.8167°E)
Time: 00:16:05
(UTC+00:00)

Cosmos 2369 Rocket - Pass Details

Date: 08 November 2025
Orbit: 826 x 852 km, 71.0° (Epoch: 04 December)

Event Time Altitude Azimuth Distance (km) Brightness Sun altitude
Exits shadow 05:26:48 - 330° (NNW) 3,302 4.9 -9.7°
Reaches altitude 10° 05:29:00 10° 333° (NNW) 2,473 4.2 -9.3°
Maximum altitude 05:34:39 65° 55° (NE) 934 2.6 -8.5°
Drops below altitude 10° 05:40:18 10° 138° (SE) 2,473 5.7 -7.7°
Sets 05:42:46 0° 141° (SE) 3,408 6.4 -7.3°
